Theta_e
344 328 320 336 340 339 335 336 337 336 337 338 337 337 337 337 336 325 323 327 319 323 333 324 317 328 333 333 334 334 332 325 332 337 338 339 340 340 338 337 335 332 334
345 323 338 341 339 337 336 337 337 337 336 337 337 337 336 337 335 318 317 320 315 317 332 326 318 323 332 333 334 334 334 330 321 329 336 338 339 340 339 337 337 336 335
343 324 339 342 340 336 332 336 336 337 336 337 336 331 326 322 320 316 317 314 313 317 334 329 323 323 329 330 332 331 332 333 326 318 327 334 338 338 340 339 338 337 331
342 331 339 340 336 334 331 328 332 334 332 328 327 326 317 313 313 312 311 312 316 321 334 330 326 327 330 331 333 331 329 322 327 320 321 322 326 335 339 339 339 338 333
340 335 339 338 333 327 323 317 318 320 319 318 317 312 311 312 311 312 315 316 317 329 332 330 327 327 330 330 333 332 331 323 318 321 327 332 328 320 329 337 339 339 339
334 337 340 339 326 320 316 313 314 312 311 311 311 312 313 321 321 322 325 328 325 331 331 330 327 328 332 332 332 331 331 329 325 317 322 328 331 331 321 322 336 337 339
328 338 339 331 321 314 311 310 310 311 312 313 315 323 336 335 329 330 330 330 328 326 326 325 327 326 332 333 332 330 329 321 318 320 321 318 327 332 335 322 317 330 335
327 328 330 323 315 311 311 314 315 318 321 331 335 333 330 330 330 331 330 328 326 324 324 324 325 326 331 331 331 331 328 319 314 313 314 319 320 322 332 335 328 317 327
329 328 325 319 311 312 315 319 323 334 338 337 337 334 328 328 329 329 327 325 323 323 322 322 322 323 326 328 328 323 314 310 308 309 309 310 311 314 320 324 335 333 323
340 339 327 314 313 316 323 334 337 338 338 339 337 331 323 324 325 325 323 322 322 321 320 316 313 312 313 312 310 308 306 305 305 305 306 307 308 308 309 315 321 322 325
340 337 325 314 316 324 336 336 334 334 336 334 327 320 320 319 320 320 319 319 318 315 310 308 307 306 307 306 306 306 305 305 305 305 305 305 309 308 307 308 308 315 321
337 330 317 315 320 333 337 334 332 328 324 321 317 317 316 315 315 316 314 309 307 307 308 307 307 307 307 308 307 307 307 306 306 306 306 308 307 315 308 306 306 308 310
334 319 315 317 327 332 335 331 329 324 321 318 320 320 318 316 311 307 306 307 307 307 308 308 308 309 309 309 309 309 308 308 308 308 306 306 317 319 316 317 308 305 306
332 318 316 320 330 331 330 329 326 322 318 319 320 320 320 318 308 306 307 307 307 307 308 309 309 308 309 309 309 309 309 309 309 308 307 306 306 311 309 305 305 305 304
334 328 319 328 330 331 331 329 328 328 323 319 319 319 319 316 308 307 308 308 308 308 308 308 308 309 309 309 309 309 309 309 309 309 308 307 306 306 305 305 305 305 304
334 335 332 333 334 335 332 331 330 329 327 320 318 319 320 312 308 308 308 308 308 309 308 308 308 309 309 310 309 309 309 309 309 309 308 307 306 306 306 305 305 305 305
335 335 336 336 335 337 333 333 332 331 330 323 319 318 315 310 309 308 308 309 309 309 308 308 309 309 309 310 309 309 309 309 310 310 309 308 307 306 306 306 306 305 304
335 335 336 337 336 338 335 334 334 333 332 326 319 315 311 310 310 309 309 308 309 308 308 308 308 308 309 310 309 309 309 309 310 310 310 309 309 307 306 307 306 306 305
335 336 335 337 337 339 337 336 334 333 332 328 322 316 315 310 310 309 309 308 308 308 308 308 308 308 308 309 309 309 309 309 310 310 310 309 309 307 307 307 306 306 305
336 336 336 337 337 338 338 336 334 333 331 330 327 323 318 312 309 309 309 309 308 308 308 307 307 307 308 308 308 308 309 309 310 310 310 309 308 307 307 307 306 305 305
337 336 336 337 337 337 337 335 334 334 334 333 331 325 320 312 309 309 309 309 309 308 307 307 307 307 308 308 308 308 308 309 310 310 310 308 308 307 306 306 305 305 304
336 336 336 336 335 337 337 336 336 335 334 332 330 325 317 312 309 308 309 308 308 308 307 307 307 307 308 308 308 308 308 308 308 308 309 307 307 307 306 305 305 304 304
337 337 336 337 334 337 336 335 335 335 334 331 330 322 317 313 309 307 308 308 308 308 308 307 306 306 308 309 309 308 308 308 308 308 308 307 307 306 306 306 305 304 303
336 337 337 337 337 337 334 336 334 334 333 331 329 326 317 314 309 307 308 308 308 308 308 307 308 309 309 309 309 309 308 308 309 308 307 307 307 307 307 306 304 303 302
332 338 337 338 336 336 335 333 334 333 332 330 329 326 317 312 309 308 308 308 308 308 307 309 310 310 309 309 309 309 308 308 308 308 308 307 307 307 306 304 303 303 301
334 337 337 334 336 336 332 333 333 332 328 329 327 323 317 312 310 309 308 308 308 308 308 309 310 310 310 309 309 309 308 308 307 307 306 305 304 304 303 302 300 298 297
Wind_Speed
19 20 19 21 19 16 15 15 14 15 16 16 14 14 13 13 12 9 10 11 12 14 14 17 19 21 21 21 21 20 20 20 19 20 23 25 23 20 20 20 20 21 22
23 21 19 19 19 17 17 17 15 15 14 15 14 13 13 11 9 7 9 9 11 14 15 17 19 20 21 18 19 18 19 18 16 18 19 23 23 23 20 20 20 19 21
23 24 22 20 18 17 17 17 18 17 15 14 14 11 8 6 5 6 9 10 13 15 15 16 19 20 18 16 16 15 12 11 15 14 18 20 24 23 22 19 19 20 19
23 25 24 21 19 18 15 16 16 15 13 12 10 7 6 7 8 9 11 13 14 17 15 15 17 18 16 16 15 15 15 13 13 14 19 20 19 20 22 21 19 16 18
24 25 23 20 19 18 15 13 14 13 12 11 10 9 10 10 11 13 14 15 16 16 13 13 16 16 15 14 14 16 17 17 14 15 20 22 20 16 17 21 20 19 16
28 26 24 21 17 16 14 14 13 13 13 13 13 12 12 14 13 15 15 15 15 14 13 12 15 16 13 12 14 13 15 15 15 16 18 19 22 19 17 16 18 20 19
29 26 24 20 16 15 15 16 15 14 14 14 14 17 18 13 13 13 13 12 11 11 11 12 14 15 13 10 11 12 14 14 13 14 16 18 17 18 20 18 15 16 18
28 25 23 19 17 17 18 17 16 15 16 16 17 15 13 11 11 11 10 10 10 11 12 13 14 15 12 8 8 8 9 9 9 13 14 16 16 15 16 19 17 15 13
23 23 21 20 20 19 18 18 17 16 17 18 17 11 9 9 10 9 9 9 10 11 12 13 13 13 12 6 5 5 7 9 9 11 12 15 14 14 13 13 17 15 15
21 20 22 22 22 21 21 19 19 19 17 16 14 6 7 8 9 10 10 10 11 11 11 12 12 12 11 8 7 8 11 11 12 12 12 14 14 13 13 12 10 10 12
23 20 23 24 23 23 22 20 18 18 18 15 10 7 8 9 10 10 11 11 11 12 13 14 14 13 11 12 14 15 15 17 15 15 16 15 15 14 13 12 11 10 10
24 26 25 26 26 26 23 22 20 17 14 13 11 11 12 11 10 10 12 14 15 15 15 15 16 15 13 15 16 16 17 18 18 18 19 18 17 16 15 14 12 11 10
23 28 27 27 28 27 24 21 19 16 15 13 12 13 11 8 8 11 14 16 17 15 16 15 15 15 14 14 15 15 16 16 17 17 18 17 18 18 17 17 16 14 11
25 28 29 29 28 25 23 20 18 17 16 13 11 10 7 5 9 13 14 16 17 17 15 14 13 12 12 11 12 12 14 14 15 15 15 15 14 15 14 15 16 15 14
26 27 31 30 27 25 20 21 20 17 14 11 10 9 6 4 9 13 14 15 15 15 14 13 12 10 10 10 10 10 11 12 13 13 13 12 12 13 13 13 14 14 14
31 28 31 30 26 25 22 21 19 16 13 11 9 8 7 7 11 13 14 14 14 13 12 11 9 8 7 7 7 8 9 10 11 11 11 10 10 11 12 12 13 13 13
36 34 33 30 27 27 25 22 17 14 10 11 10 10 10 10 11 12 14 15 14 13 11 10 9 7 5 5 5 5 7 8 10 11 10 8 7 8 9 12 13 13 13
37 37 36 33 31 31 27 25 20 17 13 13 14 13 12 11 10 12 13 14 14 12 10 8 7 6 5 3 1 3 5 7 8 11 9 8 9 7 7 11 12 12 14
41 40 38 40 33 35 31 28 22 22 18 17 15 15 12 13 12 13 14 16 15 12 11 8 6 5 4 3 2 2 4 6 7 8 8 9 9 6 9 13 13 14 16
40 39 43 40 34 34 35 32 29 28 23 18 15 13 14 15 15 15 15 15 14 13 11 9 8 6 5 3 2 2 3 5 8 9 8 7 7 8 10 13 15 17 19
44 46 47 42 37 39 42 40 38 32 26 22 18 15 16 16 16 17 15 15 14 13 12 11 9 7 6 5 6 7 7 3 5 9 9 7 6 8 10 12 12 14 18
51 49 48 44 40 44 44 39 33 28 22 18 16 17 18 17 17 18 18 16 15 15 13 11 9 8 8 8 9 10 5 11 7 6 9 10 8 8 9 10 12 14 13
54 52 53 48 35 47 40 34 31 27 20 18 19 21 21 17 17 19 18 16 14 13 12 11 11 10 10 10 10 9 5 4 7 8 9 11 15 12 13 17 20 15 12
53 54 53 53 44 42 34 31 27 27 26 19 20 25 22 18 17 19 18 16 14 13 12 11 12 12 12 12 12 11 12 14 11 9 16 18 19 20 23 19 18 15 15
31 42 53 47 41 38 29 26 25 23 17 20 22 26 23 20 17 18 18 18 16 15 14 14 14 14 14 15 16 16 16 17 18 20 21 20 22 21 21 24 23 25 28
42 48 48 36 36 26 27 25 25 16 8 29 27 28 24 21 18 18 17 17 16 16 16 15 16 17 17 18 19 20 21 20 20 19 21 22 24 26 26 26 27 28 27
Wind_Direction
174 175 165 160 155 156 151 148 143 136 132 130 130 124 120 113 108 88 92 91 85 96 87 80 84 89 84 76 73 67 66 71 75 75 73 72 68 70 69 70 72 74 71
163 170 160 164 160 156 151 149 141 142 136 133 130 126 122 115 104 75 87 90 91 98 93 86 89 92 91 82 81 66 60 59 73 83 80 80 71 67 70 70 66 73 69
167 164 167 170 163 158 151 156 153 142 139 140 138 132 128 120 113 103 103 99 102 101 101 92 90 96 97 91 87 81 68 54 58 82 84 77 76 70 66 68 70 72 73
173 165 170 175 164 164 161 162 161 160 157 155 155 147 138 130 120 112 107 107 106 103 108 99 93 101 97 89 82 72 62 65 71 77 88 74 75 75 70 69 67 73 75
180 167 170 178 169 164 166 168 166 164 164 160 152 142 132 123 118 111 107 106 108 108 111 103 102 103 101 90 86 74 66 64 71 75 82 78 69 71 74 70 67 67 72
174 164 170 176 170 168 167 165 161 157 150 143 139 132 119 114 109 111 110 105 107 108 105 104 108 107 105 98 90 75 64 60 64 71 80 82 81 74 72 78 70 70 71
170 166 173 176 173 168 161 153 149 145 141 138 132 121 112 123 114 115 112 109 105 104 106 106 112 115 112 110 93 77 65 62 64 68 77 81 79 76 69 71 75 74 71
175 176 176 175 171 164 156 150 146 142 136 127 134 129 124 128 125 121 116 109 106 106 106 108 113 119 120 114 90 70 48 53 71 71 76 82 84 87 84 71 69 75 81
166 173 177 173 167 162 156 150 145 137 142 145 153 132 126 129 127 126 121 116 113 111 109 110 115 121 126 135 107 65 61 65 71 74 76 77 79 85 90 92 83 75 78
175 183 178 173 165 161 152 143 148 154 154 160 160 152 137 134 134 133 129 125 122 120 118 116 118 118 122 121 98 82 74 72 76 78 76 74 74 79 83 88 88 75 73
182 188 180 173 165 159 149 151 149 148 154 158 168 159 135 128 129 132 132 130 128 126 121 114 113 112 108 98 92 85 81 78 76 79 79 74 75 72 75 79 81 82 80
184 181 179 172 166 161 159 158 158 157 161 167 159 141 130 126 127 132 134 132 128 125 120 120 114 106 102 93 92 88 81 78 76 74 73 71 72 72 67 71 74 75 82
182 179 178 174 169 167 165 162 161 161 165 162 146 142 131 115 129 139 136 132 129 126 123 118 112 106 99 93 91 87 81 77 73 71 73 73 73 74 67 67 64 66 70
181 177 177 175 172 170 167 166 165 159 164 162 151 145 130 115 144 147 141 135 132 133 128 119 111 102 97 92 89 83 79 73 69 66 68 68 72 74 67 58 58 59 58
183 172 175 172 174 171 170 169 166 163 166 166 160 155 154 170 162 157 151 145 140 137 134 129 122 113 104 93 82 74 69 63 56 53 56 61 63 61 59 55 51 50 48
189 177 176 173 175 172 171 174 171 172 174 177 175 174 192 199 171 166 163 153 147 144 141 137 131 119 106 85 69 56 59 54 47 45 41 43 49 49 47 45 40 34 29
193 183 183 177 177 176 177 180 180 180 184 194 187 196 208 200 176 171 171 165 161 158 157 150 142 133 119 98 60 39 29 29 34 32 36 36 42 33 32 34 27 24 21
194 191 188 186 183 179 187 189 190 188 193 202 198 200 204 201 192 178 179 176 177 174 175 169 164 157 156 142 53 10 3 360 2 6 24 26 14 15 25 16 14 14 10
196 193 192 195 186 185 195 193 197 192 193 201 199 195 197 201 202 197 186 186 185 185 190 189 194 193 181 177 228 297 321 322 320 332 351 359 356 4 350 351 354 352 351
195 197 198 195 191 194 200 193 189 196 192 199 209 212 204 206 203 204 195 192 195 198 206 206 212 213 222 236 272 265 309 287 292 299 315 326 342 332 334 339 341 336 338
197 195 195 190 195 205 200 192 194 198 201 209 208 212 213 207 208 208 205 204 206 208 213 221 226 228 245 277 292 295 310 320 302 292 264 267 292 310 316 320 324 326 326
198 197 195 199 201 205 200 200 210 210 213 202 216 213 211 210 209 214 216 214 209 213 217 224 233 240 253 270 284 301 307 302 316 264 231 242 273 287 281 284 301 308 305
198 201 198 203 217 204 213 220 207 209 200 202 213 215 207 207 212 213 213 214 215 216 226 236 244 252 256 264 274 277 287 269 283 257 240 252 276 272 278 286 300 294 277
199 202 202 205 205 211 219 221 225 221 203 220 216 209 212 208 210 212 215 217 221 224 230 240 245 250 257 267 270 271 275 272 272 268 275 279 279 278 288 290 293 280 286
225 211 208 206 213 219 220 223 223 225 222 238 208 206 210 208 204 210 215 218 222 228 232 238 248 261 271 277 281 283 281 277 273 270 280 275 272 276 279 285 284 281 284
198 214 213 217 218 212 228 224 227 209 234 230 209 207 201 210 207 207 209 217 225 234 238 249 259 265 271 275 276 277 276 277 279 278 279 282 285 286 285 286 287 287 289